Regional Weather Roundup
Issued by NWS

Home | Current Version | Previous Version | Text Only | Print | Product List | Glossary On
Versions: 1 2 3 4 5 6 7 8 9 10 11 12 13 14 15 16 17 18 19 20 21 22 23 24 25 26 27 28 29 30 31 32 33 34 35 36 37 38 39 40 41 42 43 44 45 46 47 48 49 50
000
ASUS45 KTFX 301704
RWRMT
MONTANA HOURLY WEATHER ROUNDUP
NATIONAL WEATHER SERVICE GREAT FALLS MT
1104 AM MDT THU OCT 30 2014

NOTE: "FAIR" INDICATES FEW OR NO CLOUDS BELOW 12000 FEET WITH NO
SIGNIFICANT WEATHER AND/OR OBSTRUCTIONS TO VISIBILITY.

* THESE STATIONS ARE NOT UNDER NWS QUALITY CONTROL. THEY DO NOT
   REPORT WEATHER SUCH AS PRECIPITATION OR FOG.

MTZ001>007-043-301800-
WEST OF THE DIVIDE
CITY           SKY/WX    TMP DP  RH WIND       PRES   REMARKS
KALISPELL      FOG       43  43 100 CALM      30.23F
MISSOULA       CLOUDY    43  41  93 W3        30.25F
BUTTE          PTSUNNY   39  30  70 CALM      30.28F
MULLAN PASS    FOG       36  36 100 SE9G17    30.18S VSB M1/4 WCI  29
* DEER LODGE   CLOUDY    39  34  82 N/A        N/A
* ESSEX        N/A       39  36  89 SE3        N/A
* HAMILTON APT PTSUNNY   41  37  86 NW2        N/A
* LIBBY APT    CLOUDY    45  41  86 N/A        N/A
* LINCOLN      N/A       33  31  92 W2         N/A
* LOOKOUT PASS N/A       39  39 100 S6G12      N/A   WCI  35
* POLSON       N/A       41  41 100 S1         N/A
* RONAN APT    CLOUDY    41  39  93 N/A        N/A
* SEELEY LAKE  N/A       34  33  96 NE2        N/A
* THOMP F APT  CLOUDY    44  28  53 SW1        N/A
* YAAK HILL    N/A       45  43  93 E1         N/A
$$

MTZ008-052>055-301800-
SOUTHWEST MONTANA
CITY           SKY/WX    TMP DP  RH WIND       PRES   REMARKS
BOZEMAN        CLOUDY    39  32  76 CALM      30.30S
DILLON         PTSUNNY   43  30  60 S3        30.29S
W YELLOWSTONE  PTSUNNY   32  28  85 CALM      30.37S
* ENNIS APT    PTSUNNY   46  28  50 S5         N/A
* THREE FORKS  CLOUDY    37  37 100 N/A        N/A
* BOULDER HILL N/A       38  26  62 SW12       N/A   WCI  30
* RAYNOLDS PAS N/A       40  22  49 S4         N/A
* WHITEHALL    N/A       39  30  70 E2         N/A
* WISE RIVER   N/A       34  31  89 W3         N/A
$$

MTZ009>010-012-014-046-048-049-054-301800-
EAST SLOPES AND CENTRAL MONTANA
CITY           SKY/WX    TMP DP  RH WIND       PRES   REMARKS
CUT BANK       PTCLDY    45  32  60 SE6       30.24S
GREAT FALLS    PTCLDY    48  34  59 E3        30.25S
HELENA         PTSUNNY   43  36  76 CALM      30.28S
MALMSTROM AFB  PTCLDY    46  34  63 VRB2      30.27F
* CONRAD       PTCLDY    43  36  76 N/A        N/A
* DEARBORN     N/A       41  34  76 SE2        N/A
* EAST GLACIER N/A       43  32  65 W11        N/A
* MONARCH      N/A       43  26  51 SW3        N/A
* ROGERS PASS  N/A       42  32  68 W6         N/A
* SAINT MARY   N/A       38  30  73 NE2        N/A
* SWEET GRASS  N/A       43  32  65 S9         N/A
$$

MTZ011-013-016-021-035-040-045-047-050-051-301800-
NORTH CENTRAL MONTANA
CITY           SKY/WX    TMP DP  RH WIND       PRES   REMARKS
HAVRE          FOG       30  30 100 E16       30.32R VSB 1/2  WCI  19
LEWISTOWN      SUNNY     50  34  54 E3        30.29S
* N BAR RANCH  SUNNY     50  30  46 VRB5      30.31S
* CHESTER      N/A       42  36  79 NE4        N/A
* DENTON       N/A       47  33  58 E10        N/A
* GEYSER       N/A       51  31  46 E4         N/A
* JUDITH GAP   N/A       46  32  58 SE7        N/A
* LOMA         N/A       42  34  73 E3         N/A
$$

MTZ017>020-022>027-061-062-301800-
NORTHEAST MONTANA
CITY           SKY/WX    TMP DP  RH WIND       PRES   REMARKS
GLASGOW        CLOUDY    37  30  76 E9        30.38S WCI  30
GLENDIVE       CLOUDY    37  32  82 E8        30.39S WCI  31
JORDAN         SUNNY     34  34 100 E8        30.37R WCI  27
SIDNEY         CLOUDY    36  32  85 NW5       30.43R WCI  32
WOLF POINT     CLOUDY    37  30  76 E5        30.42R WCI  33
* BEAVER HILL  N/A       35  31  85 N/A        N/A
* LINDSAY DVD  N/A       34  32  92 N3G8       N/A
* NAVAJO       N/A       31  28  89 NE8        N/A   WCI  24
* PLENTYWOOD A N/A       36 N/A N/A N/A        N/A
* POPLAR APT   N/A       36  30  79 N/A        N/A
$$

MTZ028>042-056>058-301800-
SOUTHCENTRAL AND SOUTHEAST MONTANA
CITY           SKY/WX    TMP DP  RH WIND       PRES   REMARKS
BAKER          CLOUDY    36  30  79 NW3       30.37R
BILLINGS       SUNNY     46  28  50 SW9       30.32F
LIVINGSTON     PTSUNNY   48  28  46 CALM      30.30S
MILES CITY     SUNNY     39  34  82 NE10      30.36R WCI  32
* FORSYTH APT  SUNNY     45  34  65 N/A        N/A
* LAUREL APT   PTCLDY    46  27  48 N/A        N/A
* ROUNDUP APT  SUNNY     45  28  51 N/A        N/A
* ALZADA       N/A       49  34  56 NW6        N/A
* HYSHAM       N/A       49  32  52 W7         N/A
* LAME DEER    N/A       47  32  56 W8         N/A
* REED POINT   N/A       42  30  63 E2         N/A
* ROSCOE HILL  N/A       49  25  39 E11        N/A
$$

REGIONAL REPORTS...DAKOTAS
CITY           SKY/WX    TMP DP  RH WIND       PRES   REMARKS
WILLISTON      FOG       37  34  89 N7        30.41R WCI  32
DICKINSON      HAZE      37  32  82 N8        30.35R WCI  31
BEACH          N/A       34  32  92 NE3       30.38R
CROSBY         CLOUDY    34  34 100 N10       30.43R WCI  26
TIOGA          FOG       34  34 100 NE8       30.43R WCI  27
BISMARCK       CLOUDY    36  30  79 N9        30.38R WCI  29
GRAND FORKS    CLOUDY    37  30  76 N23G29    30.30R WCI  26
FARGO          CLOUDY    41  34  76 N23       30.25R
BUFFALO SD     SUNNY     36  32  85 N8        30.29R WCI  30
RAPID CITY     SUNNY     52  34  50 N16G23    30.31R
$$

REGIONAL REPORTS...WYOMING/IDAHO/WASHINGTON
CITY           SKY/WX    TMP DP  RH WIND       PRES   REMARKS
GILLETTE       SUNNY     52  30  43 W6        30.34S
SHERIDAN       SUNNY     54  30  40 E5        30.34R
CODY           CLOUDY    48  30  50 CALM      30.32F
YELLOWSTONE LA PTSUNNY   39  30  70 VRB3      30.40S
SALMON         PTSUNNY   45  34  65 CALM      30.28F
MULLAN PASS    FOG       36  36 100 SE9G17    30.18S VSB M1/4 WCI  29
SAND POINT     CLOUDY    46  43  89 NE13      30.16S
SPOKANE        CLOUDY    46  45  96 NE9       30.10F
$$

REGIONAL REPORTS...ALBERTA
CITY           SKY/WX    TMP DP  RH WIND       PRES   REMARKS
MEDICINE HAT   FOG       32  32 100 E8        30.29S VSB 1 1/2 WCI  25

$$




USA.gov is the U.S. government's official web portal to all federal, state and local government web resources and services.